Torna al catalogo

LT-1 01A

AttivoScienzaSSO
NORAD 51284·PAYLOAD·🇨🇳 China

Lanciato Jan 25, 2022 da Jiuquan Satellite Launch Center

Loading…

Prossimi Passaggi (prossime 24 ore)

TLE

AggiornatoSource: Space-Track

Epoca: Sep 14, 2026, 14:13 UTC

1 51284U 22007A   26257.59295519  .00000398  00000-0  48819-4 0  9992
2 51284  97.8111 263.7481 0001592  90.2509 269.8890 14.88420086251777

Traccia LT-1 01A in tempo reale con AllMySat

Download on the App Store